Regional Weather Roundup
Issued by NWS Grand Forks, ND

Home | Current Version | Previous Version | Graphics & Text | Print | Product List | Glossary On
Versions: 1 2 3 4 5 6 7 8 9 10 11 12 13 14 15 16 17 18 19 20 21 22 23 24 25 26 27 28 29 30 31 32 33 34 35 36 37 38 39 40 41 42 43 44 45 46 47 48 49 50
000
ASUS43 KFGF 010231
RWRFGF
PRAIRIE TO PINES  WEATHER ROUNDUP
NATIONAL WEATHER SERVICE EASTERN NORTH DAKOTA/GRAND FORKS ND
900 PM CDT TUE MAY 31 2016

 **SATELLITE DATA USED TO AUGMENT SKY COVER AT AUTOMATED STATIONS**
 *****  WEATHER ACROSS EASTERN NORTH DAKOTA  *****

CITY           SKY/WX    TMP DP  RH WIND       PRES   REMARKS
GRAND FORKS    LGT RAIN  58  50  75 SW14      29.65S
GRAND FRKS AFB LGT RAIN  55  52  88 SW7       29.66R
DEVILS LAKE    PTCLDY    55  50  83 SE5       29.65R
FARGO          LGT RAIN  61  50  67 S15       29.64F
WAHPETON ARPT  PTCLDY    63  45  51 SW16G24   29.69R
$$

 ***** WEATHER ACROSS CENTRAL AND WESTERN NORTH DAKOTA  *****

CITY           SKY/WX    TMP DP  RH WIND       PRES   REMARKS
BISMARCK       CLOUDY    54  48  80 NW22G35   29.77R
MINOT          LGT RAIN  53  49  86 NW23G35   29.76R FOG
JAMESTOWN      CLEAR     55  52  89 W7        29.64R
MINOT AFB      LGT RAIN  50  50 100 NW24G35   29.75R FOG
GARRISON         N/A     52  48  86 NW29G40   29.77R
WILLISTON      CLOUDY    53  49  86 N15G24    29.93R
DICKINSON      CLOUDY    49  46  90 NW20G26   29.89R
HETTINGER      LGT RAIN  51  48  89 NW14G22   29.94R
$$

 *****  OTHER AIRPORT OBSERVATIONS IN OUR AREA  *****

CITY           SKY/WX    TMP DP  RH WIND       PRES   REMARKS
WALHALLA       FAIR      57  54  88 SE5       29.65R
GRAFTON AIRPOR FAIR      59  52  77 S6        29.67S
VALLEY CITY AR LGT RAIN  52  52 100 N9        29.66R
CANDO          TSTM      54  46  76 NW12      29.67R
CAVALIER APRT  MOCLDY    63  50  63 S7        29.65R
GWINNER        CLOUDY    59  52  77 SW13      29.66R
SHEYENNE NWR     N/A     61  52  72 SW14      29.95S
ROLLA          CLOUDY    52  52 100 N18G24    29.67R
 ***** THE ABOVE OBSERVATIONS ARE NON NWS ARE NOT QUALITY
       CONTROLLED AND MAY MIS-REPORT RAIN FOR SNOW...
$$

  *****  WEATHER ACROSS NORTHERN MINNESOTA  *****

CITY           SKY/WX    TMP DP  RH WIND       PRES   REMARKS
FLAG ISLAND    CLOUDY    54  52  94 E8G16     29.76S
WARROAD        CLOUDY    57  54  88 E15       29.74S
ROSEAU         MOCLDY    59  54  82 E10       29.72S
HALLOCK        CLOUDY    61  52  72 S5        29.67R
THF RVR FALLS  CLOUDY    61  52  72 E5        29.69S
BAUDETTE       CLOUDY    56  53  90 E13       29.76F
WASKISH        MOCLDY    57  55  94 E13       29.75F
CROOKSTON      CLOUDY    61  52  72 E6        29.65F
$$
  *****  WEATHER ACROSS CENTRAL AND WEST MINNESOTA  *****

CITY           SKY/WX    TMP DP  RH WIND       PRES   REMARKS
FOSSTON        CLOUDY    61  52  72 SE9       29.70F
BEMIDJI        CLOUDY    61  47  59 SE7       29.73F
PARK RAPIDS    CLOUDY    65  46  50 S7        29.74F
ELBOW LAKE     CLOUDY    64  48  55 W15       29.73F
WADENA         CLOUDY    63  48  59 SE10      29.73F
DETROIT LAKES  CLOUDY    64  46  52 S14G22    29.71F
MOORHEAD       CLOUDY    63  52  67 S9        29.66F
FERGUS FALLS   CLOUDY    63  50  63 SW13      29.68S
MORRIS MN      CLOUDY    66  46  48 SW16      29.74F
STAPLES        CLOUDY    63  46  55 SE6       29.76F
$$
  *****  WEATHER ELSEWHERE ACROSS MINNESOTA  *****

CITY           SKY/WX    TMP DP  RH WIND       PRES   REMARKS
DULUTH         CLOUDY    45  43  93 E8        29.87F FOG
INTRNTL FALLS  CLOUDY    53  52  96 SE8       29.81F FOG
ELY            CLOUDY    50  46  87 SE5       29.87F
CLOQUET        CLOUDY    43  41  93 E8        29.87S
WHEATON        CLOUDY    66  50  55 SW21G29   29.73F
BRAINERD       CLEAR     60  51  72 S6        29.79F
HIBBING        CLOUDY    51  50  96 SE9       29.84F
ALEXANDRIA     CLOUDY    66  48  52 S10       29.77F
SAINT CLOUD    CLEAR     65  51  60 S5        29.81F
MINNEAPOLIS    MOCLDY    70  58  65 SE7       29.84S
$$

  *****  WEATHER ACROSS SOUTH DAKOTA  *****

CITY           SKY/WX    TMP DP  RH WIND       PRES   REMARKS
SIOUX FALLS    MOCLDY    68  51  54 W6        29.87R
BROOKINGS      CLEAR     65  47  52 W16G23    29.84R
WATERTOWN      PTCLDY    62  46  55 SW23G35   29.79S
HURON          MOCLDY    62  46  55 W20G31    29.86R
SISSETON         N/A     64  47  53 W26G32    29.70F
ABERDEEN       MOCLDY    59  47  64 W22G31    29.74R
MITCHELL       CLEAR     65  49  56 W15       29.90R
PIERRE         CLOUDY    59  45  59 W18       29.90R
MOBRIDGE       CLOUDY    58  46  64 NW18G37   29.81R
RAPID CITY     CLEAR     53  44  71 NW13      30.05R
$$

  *****  SOME WEATHER IN NEARBY STATES *****

CITY           SKY/WX    TMP DP  RH WIND       PRES   REMARKS
GLASGOW MT     CLOUDY    56  48  74 N14       30.04R
GREAT FALLS MT MOSUNNY   61  33  35 N6        30.13F
CHEYENNE WY    MOCLDY    56  39  53 NE9       30.15R
SCOTTSBLUFF NE CLEAR     62  37  39 N16       30.08R
OMAHA NE       PTCLDY    71  58  63 E3        29.93R
DES MOINES IA  MOCLDY    69  63  81 CALM      29.91R
DAVENPORT IA   LGT RAIN  70  65  84 SE12      29.92R
CHICAGO IL     CLOUDY    67  61  81 E6        29.95S
EAU CLAIRE WI  CLOUDY    63  62  97 SE5       29.87S
LA CROSSE WI   LGT RAIN  64  62  93 SE8       29.89F
$$

  *****  SOME NATIONAL WEATHER *****

CITY           SKY/WX    TMP DP  RH WIND       PRES   REMARKS
LA GUARDIA NY  MOCLDY    75  69  81 SW9       29.96R
RALEIGH NC     CLOUDY    74  69  85 NE6       29.97R
ATLANTA GA     PTCLDY    82  63  52 SE5       29.94R
NEW ORLEANS LA CLOUDY    80  68  66 SW8       29.92R
OKLAHOMA CITY  CLOUDY    68  66  93 S8        29.90R
ALBUQUERQUE NM CLOUDY    66  38  35 SE21G26   30.02R
SALT LAKE CITY PTCLDY    75  31  19 NW7       30.02S
LOS ANGELES CA CLOUDY    62  57  83 W10       29.86R
BOISE ID       SUNNY     78  22  12 NW10      29.99F
SEATTLE WA     PTSUNNY   77  47  34 NW6       29.97F
$$

*** WEATHER ACROSS MANITOBA...SASKATCHEWAN AND ONTARIO ***
                ***ONTARIO***

CITY           SKY/WX    TMP DP  RH WIND       PRES   REMARKS
GERALDTON      LGT RAIN  52  41  66 E9        30.10R
THUNDER BAY    CLOUDY    48  43  81 E9        29.98F
SIOUX LOOKOUT  LGT RAIN  46  45  93 SE8       29.91F
TORONTO        PTCLDY    63  46  55 N13G20    30.06R
BIG TROUT LK   CLEAR     48  34  57 E6        30.15F
PICKLE LAKE    LGT RAIN  48  41  76 E10G18    30.04F
DRYDEN         CLOUDY    46  45  93 E12G17    29.87S
KENORA         DRIZZLE   50  50 100 E8        29.81S FOG
$$
                *** MANITOBA***

CITY           SKY/WX    TMP DP  RH WIND       PRES   REMARKS
BRANDON        LGT RAIN  50  48  93 NE26      29.73R
DAUPHIN        LGT RAIN  48  46  93 NE20G26   29.87S FOG
ISLAND LAKE    CLOUDY    52  36  54 E7G18     30.04F
PILOT MOUND      N/A     55  54  94 N12G17      N/A
THE PAS        PTCLDY    57  36  44 VRB2      30.02S
THOMPSON       CLOUDY    55  28  35 E5        30.09S
WINNIPEG       CLOUDY    55  54  94 E17       29.69S
LYNN LAKE      CLOUDY    59  41  51 E5        30.04F
CHURCHILL      PTCLDY    36  27  69 SE18      30.28S
GILLAM         MOCLDY    48  32  53 E7        30.16F
$$
                ***SASKATCHEWAN***

CITY           SKY/WX    TMP DP  RH WIND       PRES   REMARKS
ESTEVAN        LGT RAIN  48  46  93 N22       29.89S
KINDERSLEY     LGT RAIN  57  48  72 N9        30.07R
LLOYDMINSTER   MOSUNNY   61  45  55 E6        30.05F
PRINCE ALBERT  PTCLDY    59  41  51 N7        30.02S
REGINA         LGT RAIN  50  48  93 N9        29.98R
YORKTON        LGT RAIN  46  43  87 N12G17    29.96S
N. BATTLEFORD  MOSUNNY   61  46  59 N7        30.06S
LA RONGE       MOCLDY    61  43  51 CALM      30.03S
SASKATOON      PTCLDY    57  43  58 NE8       30.04S
SWIFT CURRENT  MOCLDY    55  48  76 NW10      30.04R
$$
NOTE: THESE ARE AUTOMATED STATIONS WITH LIMITED QUALITY CONTROL
      "FAIR" INDICATES FEW OR NO CLOUDS BELOW 12,000 FEET WITH NO
      SIGNIFICANT WEATHER AND/OR OBSTRUCTIONS TO VISIBILITY.
      SKY/WX - SKY CONDITION AND SIGNIFICANT WEATHER.
      TMP - AIR TEMPERATURE.    DP   - DEWPOINT TEMPERATURE.
      RH  - RELATIVE HUMIDITY.  PRES - PRESSURE.
      HX  - HEAT INDEX.         WCI  - WIND CHILL INDEX.
$



USA.gov is the U.S. government's official web portal to all federal, state and local government web resources and services.